Location: Chantarel
(45.1638°N, 1.7873°E)
Time: 20:55:00
(UTC+00:00)

MetOp-A - Pass Details

Date: 03 March 2021
Orbit: 819 x 821 km, 98.5° (Epoch: 13 April)

Event Time Altitude Azimuth Distance (km) Brightness Sun altitude
Exits shadow 19:27:03 - 162° (SSE) 2,573 6.4 -19.1°
Reaches altitude 10° 19:27:28 10° 162° (SSE) 2,412 6.3 -19.1°
Maximum altitude 19:32:49 85° 74° (ENE) 832 4.0 -20.1°
Drops below altitude 10° 19:38:12 10° 347° (NNW) 2,429 6.9 -21.0°
Sets 19:40:34 0° 347° (NNW) 3,366 7.7 -21.4°
